| time (UTC) | temp C | wind direction | speed KPH | gust KPH | rain 1hr cm | rain 24hr cm | rain mn cm | humidity % | barometer mb |
| 20260901141202 | 24 | 270 | 11.3 | 25.7 | 0.00 | 0.00 | 0.00 | 44 | 1019.6 |
| 20260901135936 | 23 | 270 | 11.3 | 24.1 | 0.00 | 0.00 | 0.00 | 41 | 1019.9 |
| 20260901134632 | 23 | 270 | 11.3 | 24.1 | 0.00 | 0.00 | 0.00 | 41 | 1019.9 |
| 20260901133312 | 23 | 270 | 11.3 | 24.1 | 0.00 | 0.00 | 0.00 | 41 | 1020.2 |
| 20260901131832 | 23 | 270 | 11.3 | 24.1 | 0.00 | 0.00 | 0.00 | 41 | 1020.2 |
| 20260901130505 | 23 | 270 | 11.3 | 22.5 | 0.00 | 0.00 | 0.00 | 42 | 1020.4 |
| 20260901125112 | 23 | 270 | 11.3 | 22.5 | 0.00 | 0.00 | 0.00 | 42 | 1020.4 |
| 20260901123752 | 23 | 270 | 11.3 | 22.5 | 0.00 | 0.00 | 0.00 | 42 | 1020.4 |
| 20260901122522 | 23 | 225 | 11.3 | 22.5 | 0.00 | 0.00 | 0.00 | 46 | 1020.6 |
| 20260901121237 | 23 | 225 | 11.3 | 22.5 | 0.00 | 0.00 | 0.00 | 46 | 1020.6 |
| 20260901115816 | 22 | 270 | 11.3 | 24.1 | 0.00 | 0.00 | 0.00 | 47 | 1020.9 |
| 20260901114351 | 22 | 270 | 11.3 | 24.1 | 0.00 | 0.00 | 0.00 | 47 | 1020.9 |
| 20260901112947 | 22 | 270 | 11.3 | 22.5 | 0.00 | 0.00 | 0.00 | 50 | 1021.1 |
| 20260901111656 | 22 | 270 | 11.3 | 22.5 | 0.00 | 0.00 | 0.00 | 50 | 1021.1 |
| 20260901110242 | 21 | 270 | 9.7 | 14.5 | 0.00 | 0.00 | 0.00 | 55 | 1021.4 |
| 20260901104946 | 21 | 270 | 9.7 | 14.5 | 0.00 | 0.00 | 0.00 | 55 | 1021.4 |
| 20260901103747 | 21 | 270 | 9.7 | 14.5 | 0.00 | 0.00 | 0.00 | 55 | 1021.4 |
| 20260901102347 | 21 | 270 | 6.4 | 14.5 | 0.00 | 0.00 | 0.00 | 62 | 1021.5 |
| 20260901101022 | 21 | 270 | 6.4 | 14.5 | 0.00 | 0.00 | 0.00 | 62 | 1021.5 |
| 20260901095656 | 20 | 270 | 9.7 | 19.3 | 0.00 | 0.00 | 0.00 | 62 | 1021.8 |
| 20260901094352 | 20 | 270 | 9.7 | 19.3 | 0.00 | 0.00 | 0.00 | 62 | 1021.8 |
| 20260901093127 | 19 | 315 | 11.3 | 19.3 | 0.00 | 0.00 | 0.00 | 62 | 1021.8 |
| 20260901091712 | 19 | 315 | 11.3 | 19.3 | 0.00 | 0.00 | 0.00 | 62 | 1021.8 |
| 20260901090242 | 18 | 270 | 9.7 | 17.7 | 0.00 | 0.00 | 0.00 | 67 | 1021.7 |
| 20260901084952 | 18 | 270 | 9.7 | 17.7 | 0.00 | 0.00 | 0.00 | 67 | 1021.7 |
| 20260901083703 | 18 | 270 | 9.7 | 17.7 | 0.00 | 0.00 | 0.00 | 67 | 1021.7 |
| 20260901082317 | 18 | 270 | 4.8 | 8.0 | 0.00 | 0.00 | 0.00 | 71 | 1021.7 |
| 20260901080944 | 18 | 270 | 4.8 | 8.0 | 0.00 | 0.00 | 0.00 | 71 | 1021.7 |
| 20260901075637 | 18 | 270 | 3.2 | 6.4 | 0.00 | 0.00 | 0.00 | 71 | 1021.8 |
| 20260901074232 | 18 | 270 | 3.2 | 6.4 | 0.00 | 0.00 | 0.00 | 71 | 1021.8 |
| 20260901072937 | 16 | 45 | 3.2 | 4.8 | 0.00 | 0.00 | 0.00 | 78 | 1021.9 |
| 20260901071536 | 16 | 45 | 3.2 | 4.8 | 0.00 | 0.00 | 0.00 | 78 | 1021.9 |
| 20260901070112 | 13 | 45 | 3.2 | 6.4 | 0.00 | 0.00 | 0.00 | 87 | 1022.3 |
| 20260901064807 | 13 | 45 | 3.2 | 6.4 | 0.00 | 0.00 | 0.00 | 87 | 1022.3 |
| 20260901063422 | 12 | 0 | 3.2 | 6.4 | 0.00 | 0.00 | 0.00 | 91 | 1022.4 |
| 20260901062022 | 12 | 0 | 3.2 | 6.4 | 0.00 | 0.00 | 0.00 | 91 | 1022.4 |
| 20260901060722 | 12 | 0 | 3.2 | 6.4 | 0.00 | 0.00 | 0.00 | 91 | 1022.4 |
| 20260901055427 | 12 | 45 | 3.2 | 6.4 | 0.00 | 0.00 | 0.00 | 92 | 1022.4 |
| 20260901054119 | 12 | 45 | 3.2 | 6.4 | 0.00 | 0.00 | 0.00 | 92 | 1022.4 |
| 20260901052732 | 12 | 45 | 3.2 | 6.4 | 0.00 | 0.00 | 0.00 | 92 | 1022.3 |
| 20260901051447 | 12 | 45 | 3.2 | 6.4 | 0.00 | 0.00 | 0.00 | 92 | 1022.3 |
| 20260901044752 | 12 | 45 | 3.2 | 6.4 | 0.00 | 0.00 | 0.00 | 93 | 1022.3 |
| 20260901043336 | 13 | 0 | 3.2 | 6.4 | 0.00 | 0.00 | 0.00 | 90 | 1022.1 |
| 20260901042132 | 13 | 0 | 3.2 | 6.4 | 0.00 | 0.00 | 0.00 | 90 | 1022.1 |
| 20260901040852 | 13 | 0 | 3.2 | 6.4 | 0.00 | 0.00 | 0.00 | 90 | 1022.1 |
| 20260901035524 | 13 | 0 | 3.2 | 4.8 | 0.00 | 0.00 | 0.00 | 88 | 1022.2 |
| 20260901034157 | 13 | 0 | 3.2 | 4.8 | 0.00 | 0.00 | 0.00 | 88 | 1022.2 |
| 20260901032807 | 14 | 135 | 3.2 | 4.8 | 0.00 | 0.00 | 0.00 | 86 | 1022.0 |
| 20260901031427 | 14 | 135 | 3.2 | 4.8 | 0.00 | 0.00 | 0.00 | 86 | 1022.0 |
| 20260901025952 | 14 | 0 | 3.2 | 9.7 | 0.00 | 0.00 | 0.00 | 84 | 1022.0 |
| 20260901024716 | 14 | 0 | 3.2 | 9.7 | 0.00 | 0.00 | 0.00 | 84 | 1022.0 |
| 20260901023407 | 13 | 45 | 3.2 | 4.8 | 0.00 | 0.00 | 0.00 | 88 | 1022.2 |
| 20260901021938 | 13 | 45 | 3.2 | 4.8 | 0.00 | 0.00 | 0.00 | 88 | 1022.2 |
| 20260901020636 | 13 | 45 | 3.2 | 4.8 | 0.00 | 0.00 | 0.00 | 88 | 1022.2 |
| 20260901015412 | 13 | 45 | 3.2 | 9.7 | 0.00 | 0.00 | 0.00 | 86 | 1022.3 |
| 20260901014032 | 13 | 45 | 3.2 | 9.7 | 0.00 | 0.00 | 0.00 | 86 | 1022.3 |
| 20260901012627 | 13 | 0 | 3.2 | 6.4 | 0.00 | 0.00 | 0.00 | 87 | 1022.3 |
| 20260901011407 | 13 | 0 | 3.2 | 6.4 | 0.00 | 0.00 | 0.00 | 87 | 1022.3 |
| 20260901010012 | 13 | 0 | 3.2 | 6.4 | 0.00 | 0.00 | 0.00 | 86 | 1022.3 |
| 20260901004712 | 13 | 0 | 3.2 | 6.4 | 0.00 | 0.00 | 0.00 | 86 | 1022.3 |
| 20260901003427 | 13 | 0 | 3.2 | 4.8 | 0.00 | 0.00 | 2.72 | 84 | 1022.1 |
| 20260901002147 | 13 | 0 | 3.2 | 4.8 | 0.00 | 0.00 | 2.72 | 84 | 1022.1 |
| 20260901000802 | 13 | 0 | 3.2 | 4.8 | 0.00 | 0.00 | 2.72 | 84 | 1022.1 |
| 20260831235452 | 13 | 45 | 3.2 | 6.4 | 0.00 | 0.00 | 2.72 | 81 | 1021.9 |
| 20260831234132 | 13 | 45 | 3.2 | 6.4 | 0.00 | 0.00 | 2.72 | 81 | 1021.9 |
| 20260831232852 | 14 | 315 | 3.2 | 6.4 | 0.00 | 0.00 | 2.72 | 79 | 1021.8 |
| 20260831231542 | 14 | 315 | 3.2 | 6.4 | 0.00 | 0.00 | 2.72 | 79 | 1021.8 |
| 20260831230217 | 15 | 90 | 3.2 | 9.7 | 0.00 | 0.00 | 2.72 | 77 | 1021.7 |
| 20260831224902 | 15 | 90 | 3.2 | 9.7 | 0.00 | 0.00 | 2.72 | 77 | 1021.7 |
| 20260831223617 | 15 | 90 | 3.2 | 9.7 | 0.00 | 0.00 | 2.72 | 77 | 1021.7 |
| 20260831222317 | 16 | 315 | 6.4 | 9.7 | 0.00 | 0.00 | 2.72 | 70 | 1021.3 |
| 20260831220842 | 16 | 315 | 6.4 | 9.7 | 0.00 | 0.00 | 2.72 | 70 | 1021.3 |
| 20260831215512 | 16 | 270 | 1.6 | 6.4 | 0.00 | 0.00 | 2.72 | 69 | 1021.2 |
| 20260831214147 | 16 | 270 | 1.6 | 6.4 | 0.00 | 0.00 | 2.72 | 69 | 1021.2 |
| 20260831212809 | 15 | 0 | 0.0 | 4.8 | 0.00 | 0.00 | 2.72 | 72 | 1021.0 |
| 20260831211332 | 15 | 0 | 0.0 | 4.8 | 0.00 | 0.00 | 2.72 | 72 | 1021.0 |
| 20260831210047 | 16 | 90 | 3.2 | 17.7 | 0.00 | 0.00 | 2.72 | 69 | 1020.6 |
| 20260831204717 | 16 | 90 | 3.2 | 17.7 | 0.00 | 0.00 | 2.72 | 69 | 1020.6 |
| 20260831203417 | 18 | 45 | 3.2 | 17.7 | 0.00 | 0.00 | 2.72 | 57 | 1020.0 |
| 20260831202017 | 18 | 45 | 3.2 | 17.7 | 0.00 | 0.00 | 2.72 | 57 | 1020.0 |
| 20260831200727 | 18 | 45 | 3.2 | 17.7 | 0.00 | 0.00 | 2.72 | 57 | 1020.0 |
| 20260831195507 | 20 | 315 | 12.9 | 35.4 | 0.00 | 0.00 | 2.72 | 49 | 1019.3 |
| 20260831194217 | 20 | 315 | 12.9 | 35.4 | 0.00 | 0.00 | 2.72 | 49 | 1019.3 |
| 20260831192822 | 0 | 0 | 0.0 | 0.0 | 0.00 | 0.00 | 2.72 | 1 | |
| 20260831191421 | 0 | 0 | 0.0 | 0.0 | 0.00 | 0.00 | 2.72 | 1 | |
| 20260831190117 | 22 | 270 | 22.5 | 48.3 | 0.00 | 0.00 | 2.72 | 41 | 1017.9 |
| 20260831184802 | 22 | 270 | 22.5 | 48.3 | 0.00 | 0.00 | 2.72 | 41 | 1017.9 |
| 20260831183340 | 22 | 270 | 25.7 | 40.2 | 0.00 | 0.00 | 2.72 | 45 | 1017.3 |
| 20260831181952 | 22 | 270 | 25.7 | 40.2 | 0.00 | 0.00 | 2.72 | 45 | 1017.3 |
| 20260831180612 | 22 | 270 | 25.7 | 40.2 | 0.00 | 0.00 | 2.72 | 45 | 1017.3 |
| 20260831175242 | 23 | 270 | 19.3 | 38.6 | 0.00 | 0.00 | 2.72 | 43 | 1016.7 |
| 20260831173912 | 23 | 270 | 19.3 | 38.6 | 0.00 | 0.00 | 2.72 | 43 | 1016.7 |
| 20260831172532 | 23 | 270 | 22.5 | 38.6 | 0.00 | 0.00 | 2.72 | 41 | 1016.4 |
| 20260831171257 | 23 | 270 | 22.5 | 38.6 | 0.00 | 0.00 | 2.72 | 41 | 1016.4 |
| 20260831165852 | 23 | 270 | 16.1 | 30.6 | 0.00 | 0.00 | 2.72 | 42 | 1016.3 |
| 20260831164412 | 23 | 270 | 16.1 | 30.6 | 0.00 | 0.00 | 2.72 | 42 | 1016.3 |
| 20260831163057 | 24 | 270 | 17.7 | 27.4 | 0.00 | 0.00 | 2.72 | 44 | 1016.4 |
| 20260831161747 | 24 | 270 | 17.7 | 27.4 | 0.00 | 0.00 | 2.72 | 44 | 1016.4 |
| 20260831160432 | 23 | 270 | 17.7 | 32.2 | 0.00 | 0.00 | 2.72 | 43 | 1016.6 |
| 20260831155132 | 23 | 270 | 17.7 | 32.2 | 0.00 | 0.00 | 2.72 | 43 | 1016.6 |
| 20260831153706 | 23 | 270 | 17.7 | 32.2 | 0.00 | 0.00 | 2.72 | 43 | 1016.6 |
| 20260831152412 | 24 | 270 | 14.5 | 27.4 | 0.00 | 0.00 | 2.72 | 42 | 1016.5 |
| 20260831150957 | 24 | 270 | 14.5 | 27.4 | 0.00 | 0.00 | 2.72 | 42 | 1016.5 |
| 20260831145620 | 24 | 270 | 17.7 | 33.8 | 0.00 | 0.00 | 2.72 | 42 | 1016.6 |
| 20260831144217 | 24 | 270 | 17.7 | 33.8 | 0.00 | 0.00 | 2.72 | 42 | 1016.6 |
| 20260831142850 | 23 | 270 | 20.9 | 33.8 | 0.00 | 0.00 | 2.72 | 44 | 1016.9 |
| 20260831141457 | 23 | 270 | 20.9 | 33.8 | 0.00 | 0.00 | 2.72 | 44 | 1016.9 |